Hourly Weather Quito

Today, 4 July, Saturday

Time Temperature Precipitation Wind Pressure Humidity
00:00 +11°C° 0 mm 1 mps 622 mmHg 57%
01:00 +10°C° 0 mm 1 mps 622 mmHg 61%
02:00 +10°C° 0 mm 1 mps 622 mmHg 63%
03:00 +9°C° 0 mm 1 mps 622 mmHg 66%
04:00 +8°C° 0 mm 2 mps 621 mmHg 68%
05:00 +8°C° 0 mm 2 mps 622 mmHg 67%
06:00 +8°C° 0 mm 2 mps 622 mmHg 66%
07:00 +9°C° 0 mm 2 mps 623 mmHg 64%
08:00 +12°C° 0 mm 3 mps 624 mmHg 52%
09:00 +15°C° 0 mm 4 mps 625 mmHg 40%
10:00 +19°C° 0 mm 5 mps 626 mmHg 28%
11:00 +21°C° 0 mm 5 mps 626 mmHg 26%
12:00 +22°C° 0 mm 4 mps 625 mmHg 23%
13:00 +23°C° 0 mm 4 mps 625 mmHg 20%
14:00 +23°C° 0 mm 4 mps 625 mmHg 20%
15:00 +24°C° 0 mm 3 mps 624 mmHg 20%
16:00 +24°C° 0 mm 3 mps 624 mmHg 19%
17:00 +20°C° 0 mm 3 mps 623 mmHg 25%
18:00 +17°C° 0 mm 2 mps 622 mmHg 31%
19:00 +14°C° 0 mm 1 mps 622 mmHg 37%
20:00 +13°C° 0 mm 1 mps 622 mmHg 40%
21:00 +12°C° 0 mm 2 mps 622 mmHg 43%
22:00 +10°C° 0 mm 2 mps 622 mmHg 46%
23:00 +10°C° 0 mm 2 mps 622 mmHg 48%

Tomorrow, 5 July, Sunday

Time Temperature Precipitation Wind Pressure Humidity
00:00 +9°C° 0 mm 2 mps 621 mmHg 50%
01:00 +8°C° 0 mm 2 mps 621 mmHg 52%
02:00 +8°C° 0 mm 2 mps 621 mmHg 51%
03:00 +8°C° 0 mm 1 mps 621 mmHg 50%
04:00 +8°C° 0 mm 1 mps 621 mmHg 49%
05:00 +8°C° 0 mm 1 mps 621 mmHg 48%
06:00 +9°C° 0 mm 1 mps 622 mmHg 47%
07:00 +9°C° 0 mm 1 mps 622 mmHg 47%
08:00 +13°C° 0 mm 2 mps 623 mmHg 41%
09:00 +15°C° 0 mm 4 mps 624 mmHg 34%
10:00 +20°C° 0 mm 5 mps 625 mmHg 28%
11:00 +21°C° 0 mm 4 mps 625 mmHg 26%
12:00 +23°C° 0 mm 4 mps 625 mmHg 23%
13:00 +26°C° 0 mm 3 mps 625 mmHg 20%
14:00 +26°C° 0 mm 3 mps 624 mmHg 20%
15:00 +25°C° 0 mm 3 mps 624 mmHg 19%
16:00 +25°C° 0 mm 3 mps 623 mmHg 19%
17:00 +21°C° 0 mm 2 mps 623 mmHg 23%
18:00 +18°C° 0 mm 2 mps 622 mmHg 28%
19:00 +15°C° 0 mm 1 mps 621 mmHg 33%
20:00 +14°C° 0 mm 1 mps 622 mmHg 35%
21:00 +13°C° 0 mm 1 mps 622 mmHg 36%
22:00 +12°C° 0 mm 1 mps 622 mmHg 38%
23:00 +11°C° 0 mm 1 mps 622 mmHg 41%

Day after tomorrow, 6 July, Monday

Time Temperature Precipitation Wind Pressure Humidity
00:00 +11°C° 0 mm 1 mps 621 mmHg 44%
01:00 +10°C° 0 mm 1 mps 621 mmHg 47%
02:00 +9°C° 0 mm 1 mps 621 mmHg 46%
03:00 +9°C° 0 mm 1 mps 621 mmHg 46%
04:00 +8°C° 0 mm 1 mps 621 mmHg 46%
05:00 +9°C° 0 mm 1 mps 621 mmHg 44%
06:00 +9°C° 0 mm 1 mps 622 mmHg 43%
07:00 +10°C° 0 mm 1 mps 622 mmHg 42%
08:00 +13°C° 0 mm 2 mps 623 mmHg 35%
09:00 +17°C° 0 mm 3 mps 624 mmHg 29%
10:00 +21°C° 0 mm 4 mps 625 mmHg 22%
11:00 +22°C° 0 mm 3 mps 625 mmHg 19%
12:00 +24°C° 0 mm 3 mps 625 mmHg 17%
13:00 +25°C° 0 mm 3 mps 624 mmHg 15%
14:00 +25°C° 0 mm 3 mps 624 mmHg 15%
15:00 +25°C° 0 mm 2 mps 623 mmHg 15%
16:00 +25°C° 0 mm 2 mps 623 mmHg 14%
17:00 +21°C° 0 mm 2 mps 622 mmHg 19%
18:00 +19°C° 0 mm 1 mps 622 mmHg 23%
19:00 +15°C° 0 mm 1 mps 621 mmHg 27%
20:00 +14°C° 0 mm 1 mps 621 mmHg 28%
21:00 +13°C° 0 mm 1 mps 622 mmHg 28%
22:00 +13°C° 0 mm 1 mps 622 mmHg 29%
23:00 +12°C° 0 mm 1 mps 622 mmHg 32%

7 July, Tuesday

Time Temperature Precipitation Wind Pressure Humidity
00:00 +11°C° 0 mm 1 mps 621 mmHg 35%
01:00 +10°C° 0 mm 1 mps 621 mmHg 38%
02:00 +10°C° 0 mm 1 mps 621 mmHg 40%
03:00 +9°C° 0 mm 1 mps 621 mmHg 41%
04:00 +9°C° 0 mm 1 mps 621 mmHg 43%
05:00 +9°C° 0 mm 1 mps 621 mmHg 41%
06:00 +9°C° 0 mm 1 mps 621 mmHg 39%
07:00 +10°C° 0 mm 1 mps 622 mmHg 37%
08:00 +14°C° 0 mm 2 mps 623 mmHg 30%
09:00 +18°C° 0 mm 2 mps 624 mmHg 23%
10:00 +22°C° 0 mm 3 mps 625 mmHg 16%
11:00 +24°C° 0 mm 3 mps 625 mmHg 15%
12:00 +25°C° 0 mm 3 mps 624 mmHg 13%
13:00 +26°C° 0 mm 2 mps 624 mmHg 12%
14:00 +26°C° 0 mm 2 mps 623 mmHg 12%
15:00 +26°C° 0 mm 2 mps 623 mmHg 11%
16:00 +26°C° 0 mm 2 mps 622 mmHg 11%
17:00 +21°C° 0 mm 2 mps 621 mmHg 15%
18:00 +19°C° 0 mm 1 mps 621 mmHg 18%
19:00 +14°C° 0 mm 1 mps 620 mmHg 22%
20:00 +14°C° 0 mm 1 mps 620 mmHg 22%
21:00 +13°C° 0 mm 1 mps 620 mmHg 23%
22:00 +13°C° 0 mm 1 mps 621 mmHg 23%
23:00 +12°C° 0 mm 1 mps 620 mmHg 25%

8 July, Wednesday

Time Temperature Precipitation Wind Pressure Humidity
00:00 +12°C° 0 mm 1 mps 620 mmHg 27%
01:00 +11°C° 0 mm 1 mps 620 mmHg 29%
02:00 +10°C° 0 mm 1 mps 620 mmHg 30%
03:00 +10°C° 0 mm 1 mps 620 mmHg 32%
04:00 +9°C° 0 mm 1 mps 619 mmHg 33%
05:00 +10°C° 0 mm 1 mps 620 mmHg 34%
06:00 +10°C° 0 mm 1 mps 621 mmHg 34%
07:00 +11°C° 0 mm 1 mps 621 mmHg 34%
08:00 +15°C° 0 mm 2 mps 622 mmHg 28%
09:00 +19°C° 0 mm 2 mps 624 mmHg 23%
10:00 +22°C° 0 mm 3 mps 625 mmHg 17%
11:00 +25°C° 0 mm 3 mps 625 mmHg 16%
12:00 +26°C° 0 mm 2 mps 624 mmHg 14%
13:00 +28°C° 0 mm 2 mps 624 mmHg 13%
14:00 +28°C° 0 mm 2 mps 624 mmHg 13%
15:00 +27°C° 0 mm 2 mps 623 mmHg 13%
16:00 +27°C° 0 mm 2 mps 623 mmHg 13%
17:00 +23°C° 0 mm 1 mps 622 mmHg 16%
18:00 +20°C° 0 mm 1 mps 621 mmHg 20%
19:00 +16°C° 0 mm 1 mps 621 mmHg 23%
20:00 +15°C° 0 mm 1 mps 621 mmHg 24%
21:00 +15°C° 0 mm 1 mps 621 mmHg 24%
22:00 +14°C° 0 mm 1 mps 622 mmHg 24%
23:00 +13°C° 0 mm 0 mps 621 mmHg 25%

9 July, Thursday

Time Temperature Precipitation Wind Pressure Humidity
00:00 +12°C° 0 mm 0 mps 621 mmHg 26%
01:00 +11°C° 0 mm 0 mps 621 mmHg 27%
02:00 +11°C° 0 mm 0 mps 621 mmHg 27%
03:00 +11°C° 0 mm 1 mps 621 mmHg 28%
04:00 +11°C° 0 mm 1 mps 621 mmHg 29%
05:00 +11°C° 0 mm 1 mps 621 mmHg 30%
06:00 +11°C° 0 mm 1 mps 622 mmHg 30%
07:00 +12°C° 0 mm 1 mps 622 mmHg 30%
08:00 +16°C° 0 mm 1 mps 623 mmHg 26%
09:00 +20°C° 0 mm 2 mps 624 mmHg 21%
10:00 +25°C° 0 mm 3 mps 625 mmHg 16%
11:00 +26°C° 0 mm 2 mps 625 mmHg 15%
12:00 +28°C° 0 mm 2 mps 625 mmHg 13%
13:00 +29°C° 0 mm 2 mps 625 mmHg 12%
14:00 +29°C° 0 mm 2 mps 624 mmHg 12%
15:00 +29°C° 0 mm 2 mps 624 mmHg 12%
16:00 +28°C° 0 mm 2 mps 623 mmHg 12%
17:00 +25°C° 0 mm 1 mps 622 mmHg 17%
18:00 +21°C° 0 mm 1 mps 622 mmHg 21%
19:00 +16°C° 0 mm 1 mps 621 mmHg 26%
20:00 +16°C° 0 mm 1 mps 621 mmHg 26%
21:00 +14°C° 0 mm 0 mps 621 mmHg 27%
22:00 +14°C° 0 mm 0 mps 622 mmHg 27%
23:00 +13°C° 0 mm 0 mps 621 mmHg 28%
Show more